Flag for Germany Weather past 2 weeks in Cottbus, Brandenburg, Germany

Now
42 °F

Overcast.


Feels Like: 38 °F
Forecast: 32 / 44 °F
Wind: 7 mph from West

Location: Cottbus

Current Time: Mar 4, 2015 at 6:00:42 PM

Latest Report: Mar 4, 2015 at 5:00 PM


Visibility: 22 mi

Pressure: 30.19 "Hg

Humidity: 61%

Dew point: 30 °F

Location of CottbusLocation

Historic Weather in Cottbus — Graph

°F

Cottbus temperature yesterday

Maximum temperature yesterday: 46 °F (at 4:00 PM)
Minimum temperature yesterday: 36 °F (at 5:00 AM)
Average temperature yesterday: 41 °F

Past Weeks' High & Low Weather Summary

 TemperatureHumidityPressure
High52 °F (Feb 21, 3:00 PM)100% (Feb 18, 3:00 AM)30.75 "Hg (Feb 18, 3:00 AM)
Low23 °F (Feb 26, 7:00 AM)42% (Feb 26, 3:00 PM)29.41 "Hg (Feb 21, 3:00 PM)
Average39 °F76%29.97 "Hg
* Reported Feb 17 4:00 PM — Mar 4 4:00 PM, Cottbus, Weather by CustomWeather, © 2015

Note: Actual official high and low records may vary slightly from our data, if they occured in-between our weather recording intervals... More about our weather records

Advertising

Cottbus weather history for previous 24 hours

 ConditionsComfort  
Time TempWeatherWind HumidityBarometerVisibility
4:00 PM
Wed, Mar 4
43 °FOvercast.6 mph59%30.18 "Hg22 mi
3:00 PM43 °FOvercast.7 mph59%30.17 "Hg19 mi
2:00 PM44 °FOvercast.7 mph56%30.16 "Hg25 mi
1:00 PM45 °FScattered clouds.6 mph52%30.16 "Hg28 mi
12:00 PM43 °FPartly sunny.8 mph55%30.16 "Hg31 mi
11:00 AM42 °FPassing clouds.8 mph63%30.14 "Hg25 mi
10:00 AM41 °FPassing clouds.6 mph70%30.14 "Hg19 mi
9:00 AM39 °FSunny.6 mph77%30.12 "Hg14 mi
8:00 AM36 °FOvercast.5 mph81%30.09 "Hg19 mi
7:00 AM35 °FOvercast.5 mph86%30.07 "Hg13 mi
6:00 AM35 °FOvercast.5 mph86%30.05 "Hg11 mi
5:00 AM36 °FPassing clouds.6 mph86%30.03 "Hg12 mi
4:00 AM36 °FPassing clouds.5 mph86%30.01 "Hg11 mi
3:00 AM38 °FPassing clouds.5 mph87%30.00 "Hg12 mi
2:00 AM39 °FOvercast.6 mph91%29.98 "Hg19 mi
1:00 AM39 °FDrizzle. Low clouds.6 mph91%29.96 "Hg13 mi
12:00 AM40 °FLight rain. Low clouds.6 mph90%29.96 "Hg5 mi
11:00 PM
Tue, Mar 3
45 °FOvercast.6 mph53%29.91 "Hg34 mi
10:00 PM44 °FOvercast.5 mph51%29.93 "Hg40 mi
9:00 PM45 °FOvercast.6 mph53%29.97 "Hg37 mi
8:00 PM44 °FOvercast.3 mph55%29.99 "Hg31 mi
7:00 PM43 °FOvercast.3 mph59%30.01 "Hg28 mi
6:00 PM43 °FOvercast.3 mph56%30.01 "Hg22 mi
Weather by CustomWeather, © 2015

See weather overviewHow to use our weather pages